EW6000 Weather Reports


time (UTC)temp
F
wind
direction
speed
knots
gust
knots
rain 1hr
in
rain 24hr
in
rain mn
in
humidity
%
barometer
mb
20260906203103 88 186 7.8 15.6 0.00 0.78 0.78 52 1014.9
20260906202603 88 172 7.0 13.9 0.00 0.78 0.78 52 1014.9
20260906202103 88 175 6.1 12.2 0.00 0.78 0.78 54 1015.0
20260906201603 88 174 7.0 12.2 0.00 0.78 0.78 53 1015.1
20260906201103 88 174 7.0 13.0 0.00 0.78 0.78 53 1015.0
20260906200603 88 185 7.0 13.0 0.00 0.78 0.78 53 1015.1
20260906200104 88 187 7.0 13.0 0.00 0.78 0.78 53 1015.2
20260906195603 87 174 7.8 13.0 0.00 0.78 0.78 54 1015.4
20260906195103 87 168 7.8 13.0 0.00 0.78 0.78 54 1015.4
20260906194603 88 173 7.0 13.0 0.00 0.78 0.78 53 1015.4
20260906194103 87 177 6.1 13.9 0.00 0.78 0.78 54 1015.5
20260906192603 87 182 6.1 11.3 0.00 0.78 0.78 54 1015.5
20260906192103 87 193 6.1 11.3 0.00 0.78 0.78 54 1015.6
20260906191603 87 188 6.1 11.3 0.00 0.78 0.78 53 1015.6
20260906191103 87 167 7.0 12.2 0.00 0.78 0.78 54 1015.6
20260906190602 86 165 7.0 12.2 0.00 0.78 0.78 55 1015.7
20260906185102 86 161 7.0 13.0 0.00 0.78 0.78 56 1015.9
20260906184602 85 168 7.8 13.0 0.00 0.78 0.78 56 1016.0
20260906184102 85 176 7.0 13.0 0.00 0.78 0.78 56 1016.0
20260906183602 85 191 7.0 11.3 0.00 0.78 0.78 55 1016.0
20260906183102 85 200 7.0 13.0 0.00 0.78 0.78 56 1016.1
20260906182601 85 196 7.8 13.0 0.00 0.78 0.78 56 1016.1
20260906182101 85 190 7.8 17.4 0.00 0.78 0.78 57 1016.2
20260906181601 84 187 8.7 17.4 0.00 0.78 0.78 59 1016.3
20260906181101 84 184 8.7 15.6 0.00 0.78 0.78 58 1016.4
20260906180602 84 190 7.8 13.9 0.00 0.78 0.78 60 1016.6
20260906175601 84 188 7.0 13.0 0.00 0.78 0.78 61 1016.7
20260906175101 83 183 7.0 13.0 0.00 0.78 0.78 61 1016.7
20260906174601 83 187 7.0 13.0 0.00 0.78 0.78 63 1016.8
20260906173600 82 177 7.8 13.9 0.00 0.78 0.78 63 1016.8
20260906173101 82 174 8.7 15.6 0.00 0.78 0.78 64 1017.0
20260906172601 82 183 9.6 15.6 0.00 0.78 0.78 63 1017.0
20260906172101 82 199 10.4 18.2 0.00 0.78 0.78 62 1017.1
20260906171600 82 200 10.4 18.2 0.00 0.78 0.78 61 1017.1
20260906171100 82 200 8.7 17.4 0.00 0.78 0.78 61 1017.1
20260906170601 82 193 7.8 13.9 0.00 0.78 0.78 62 1017.1
20260906170100 81 186 7.8 17.4 0.00 0.78 0.78 66 1017.3
20260906165600 81 194 7.0 17.4 0.00 0.78 0.78 64 1017.3
20260906165100 80 170 8.7 17.4 0.00 0.78 0.78 65 1017.3
20260906164600 80 176 9.6 17.4 0.00 0.78 0.78 65 1017.2
20260906164100 80 189 9.6 14.8 0.00 0.78 0.78 65 1017.2
20260906163600 80 171 8.7 13.9 0.00 0.78 0.78 65 1017.2
20260906163100 79 173 7.0 13.9 0.00 0.78 0.78 66 1017.2
20260906162559 79 172 7.0 15.6 0.00 0.78 0.78 68 1017.3
20260906162100 78 161 7.0 15.6 0.00 0.78 0.78 68 1017.3
20260906160100 76 175 7.8 13.9 0.00 0.78 0.78 73 1017.3
20260906155559 76 160 7.8 13.9 0.00 0.78 0.78 74 1017.2
20260906155059 76 155 7.0 13.0 0.00 0.78 0.78 75 1017.3
20260906154559 76 163 7.0 13.0 0.00 0.78 0.78 76 1017.3
20260906154059 75 181 6.1 13.0 0.00 0.78 0.78 76 1017.1
20260906152559 74 160 7.8 13.9 0.00 0.78 0.78 79 1017.0
20260906152058 74 167 7.8 13.0 0.00 0.78 0.78 79 1016.9
20260906151559 73 168 7.0 14.8 0.00 0.78 0.78 80 1016.9
20260906151058 73 166 7.0 16.5 0.00 0.78 0.78 80 1016.9
20260906150558 73 163 7.0 16.5 0.00 0.78 0.78 81 1017.0
20260906150058 72 158 6.1 11.3 0.00 0.78 0.78 82 1017.1
20260906145559 72 157 5.2 11.3 0.00 0.78 0.78 84 1017.0
20260906145058 72 151 5.2 10.4 0.00 0.78 0.78 85 1017.0
20260906143558 70 126 4.3 9.6 0.00 0.78 0.78 87 1016.9
20260906143058 70 116 3.5 8.7 0.00 0.78 0.78 88 1016.9
20260906142600 69 110 2.6 8.7 0.00 0.78 0.78 89 1016.8
20260906142058 69 105 1.7 5.2 0.00 0.78 0.78 89 1016.8
20260906141557 69 107 0.9 4.3 0.00 0.78 0.78 91 1016.8
20260906141058 68 107 0.0 3.5 0.00 0.78 0.78 91 1016.9
20260906140559 68 80 0.0 1.7 0.00 0.78 0.78 92 1016.8
20260906140057 68 71 0.0 1.7 0.00 0.78 0.78 92 1016.8
20260906135558 67 12 0.0 1.7 0.00 0.78 0.78 92 1016.9
20260906135057 67 1 0.0 1.7 0.00 0.78 0.78 92 1016.7
20260906134558 67 345 0.0 0.9 0.00 0.78 0.78 92 1016.8
20260906133558 67 337 0.9 2.6 0.00 0.78 0.78 92 1016.9
20260906133057 67 333 0.0 1.7 0.01 0.78 0.78 91 1017.0
20260906132557 67 333 0.0 0.9 0.01 0.78 0.78 91 1016.9
20260906132058 67 333 0.9 2.6 0.01 0.78 0.78 91 1016.6
20260906131556 67 336 0.9 2.6 0.01 0.78 0.78 91 1016.7
20260906131057 67 359 0.9 4.3 0.01 0.78 0.78 91 1016.3
20260906130557 67 357 1.7 5.2 0.01 0.78 0.78 91 1016.0
20260906130057 67 349 3.5 7.8 0.01 0.78 0.78 91 1016.0
20260906125557 67 341 4.3 7.8 0.01 0.78 0.78 90 1016.1
20260906125056 68 333 3.5 8.7 0.01 0.78 0.78 90 1015.8
20260906124556 68 95 6.1 18.2 0.01 0.78 0.78 90 1015.4
20260906123556 68 144 12.2 19.1 0.01 0.78 0.78 90 1013.8
20260906123056 68 153 11.3 19.1 0.00 0.77 0.77 91 1015.3
20260906122556 67 158 6.1 13.9 0.00 0.77 0.77 93 1015.6
20260906122056 67 184 1.7 7.8 0.00 0.77 0.77 94 1016.1
20260906121556 66 202 1.7 4.3 0.00 0.77 0.77 95 1016.5
20260906121056 66 218 1.7 5.2 0.00 0.77 0.77 96 1016.4
20260906120556 66 199 1.7 5.2 0.00 0.77 0.77 96 1016.4
20260906120056 66 182 2.6 5.2 0.00 0.77 0.77 96 1016.2
20260906115555 66 175 2.6 6.1 0.00 0.77 0.77 96 1016.1
20260906115056 66 150 3.5 7.0 0.00 0.77 0.77 96 1015.9
20260906114555 65 137 3.5 7.8 0.00 0.77 0.77 96 1015.5
20260906114056 65 121 4.3 10.4 0.00 0.77 0.77 96 1015.5
20260906113556 65 111 5.2 12.2 0.00 0.77 0.77 96 1015.6
20260906112556 65 104 7.0 16.5 0.00 0.77 0.77 96 1015.8
20260906111556 65 105 4.3 14.8 0.00 0.77 0.77 96 1015.8
20260906111055 65 103 5.2 9.6 0.00 0.77 0.77 96 1015.6
20260906110555 65 101 4.3 9.6 0.00 0.77 0.77 96 1015.3
20260906110055 65 104 1.7 7.8 0.00 0.77 0.77 96 1015.4
20260906105555 65 75 1.7 4.3 0.00 0.77 0.77 96 1015.5
20260906105054 65 80 3.5 14.8 0.00 0.77 0.77 96 1015.4
20260906104555 65 96 7.0 15.6 0.01 0.77 0.77 96 1015.2
20260906104054 65 99 8.7 15.6 0.01 0.77 0.77 96 1014.0
20260906103555 65 101 7.8 13.9 0.01 0.77 0.77 96 1014.6
20260906102554 65 97 9.6 20.0 0.02 0.77 0.77 96 1014.4
20260906101054 66 103 7.0 17.4 0.11 0.77 0.77 96 1015.2
20260906100555 66 102 3.5 11.3 0.23 0.77 0.77 96 1015.6
20260906100054 66 99 3.5 8.7 0.34 0.77 0.77 96 1015.6
20260906095554 66 94 2.6 8.7 0.36 0.77 0.77 96 1015.8
20260906095053 66 93 1.7 8.7 0.38 0.77 0.77 96 1016.0
20260906094553 66 88 0.9 4.3 0.39 0.76 0.76 96 1016.2
20260906094054 66 82 0.0 1.7 0.41 0.76 0.76 96 1017.0
20260906093554 66 85 0.9 2.6 0.45 0.76 0.76 96 1017.4
20260906093054 66 50 0.9 3.5 0.48 0.75 0.75 96 1017.6
20260906092554 66 37 1.7 3.5 0.49 0.75 0.75 96 1017.6
20260906092054 66 10 2.6 8.7 0.48 0.74 0.74 96 1018.2
20260906091554 65 349 4.3 8.7 0.46 0.72 0.72 95 1018.3
20260906091054 65 315 3.5 7.0 0.38 0.64 0.64 95 1019.1
20260906090553 65 291 3.5 9.6 0.24 0.50 0.50 94 1019.4
20260906090053 65 301 3.5 9.6 0.18 0.43 0.43 92 1019.1
20260906085553 65 314 4.3 9.6 0.17 0.40 0.40 92 1018.6
20260906085055 65 324 5.2 11.3 0.19 0.39 0.39 92 1018.2
20260906084553 65 322 5.2 11.3 0.21 0.37 0.37 92 1017.4
20260906084053 65 320 4.3 10.4 0.20 0.35 0.35 92 1017.5
20260906083552 65 326 4.3 10.4 0.18 0.31 0.31 92 1017.4
20260906082553 64 334 5.2 13.9 0.24 0.26 0.26 95 1017.4
20260906082054 64 334 5.2 10.4 0.25 0.26 0.26 95 1017.4
20260906080552 64 315 6.1 12.2 0.26 0.26 0.26 94 1017.9
20260906080053 64 317 7.0 17.4 0.25 0.25 0.25 93 1017.9
20260906075552 65 310 7.0 17.4 0.23 0.23 0.23 92 1018.3
20260906075053 66 301 7.0 16.5 0.20 0.20 0.20 90 1018.5
20260906074553 66 304 7.8 16.5 0.16 0.16 0.16 91 1018.6
20260906074053 66 310 7.8 15.6 0.15 0.15 0.15 92 1018.4
20260906073552 66 315 8.7 18.2 0.13 0.13 0.13 92 1018.3
20260906073052 66 309 9.6 19.1 0.07 0.07 0.07 90 1017.9
20260906072552 66 302 9.6 20.9 0.02 0.02 0.02 89 1018.3
20260906072051 67 300 9.6 22.6 0.01 0.01 0.01 88 1018.0
20260906071552 68 296 10.4 24.3 0.01 0.01 0.01 87 1017.9
20260906070052 72 278 9.6 23.5 0.00 0.00 0.00 77 1017.9
20260906065552 75 274 5.2 21.7 0.00 0.00 0.00 76 1017.8
20260906064551 76 340 2.6 5.2 0.00 0.00 0.00 86 1016.0
20260906064052 76 336 1.7 5.2 0.00 0.00 0.00 86 1015.9
20260906063551 76 325 0.9 3.5 0.00 0.00 0.00 86 1015.9
20260906063051 76 330 0.9 3.5 0.00 0.00 0.00 86 1015.7
20260906062051 76 110 0.9 1.7 0.00 0.00 0.00 86 1015.4
20260906061551 76 108 0.9 4.3 0.00 0.00 0.00 86 1015.4
20260906061051 76 106 0.9 4.3 0.00 0.00 0.00 86 1015.5
20260906060550 76 96 0.0 3.5 0.00 0.00 0.00 86 1015.3
20260906060051 77 51 0.0 0.9 0.00 0.00 0.00 86 1015.2
20260906055550 77 51 0.0 0.9 0.00 0.00 0.00 85 1015.2
20260906055051 77 80 0.0 1.7 0.00 0.00 0.00 85 1015.2
20260906054550 77 85 0.0 1.7 0.00 0.00 0.00 84 1015.2
20260906053551 77 108 0.0 0.9 0.00 0.00 0.00 84 1015.3
20260906053050 77 105 0.9 2.6 0.00 0.00 0.00 84 1015.3
20260906052551 77 121 0.9 2.6 0.00 0.00 0.00 84 1015.2
20260906052050 77 146 2.6 5.2 0.00 0.00 0.00 84 1015.1
20260906051551 77 152 2.6 5.2 0.00 0.00 0.00 84 1015.1
20260906051052 77 148 1.7 3.5 0.00 0.00 0.00 83 1015.1
20260906050550 78 117 2.6 4.3 0.00 0.00 0.00 83 1014.9
20260906050051 78 103 2.6 5.2 0.00 0.00 0.00 83 1014.7
20260906045550 78 101 3.5 7.8 0.00 0.00 0.00 83 1014.5
20260906045050 78 105 3.5 7.8 0.00 0.00 0.00 83 1014.6
20260906044550 78 123 1.7 4.3 0.00 0.00 0.00 83 1014.6
20260906044049 78 134 1.7 3.5 0.00 0.00 0.00 83 1014.7
20260906043549 78 120 2.6 5.2 0.00 0.00 0.00 82 1014.9
20260906043049 78 109 1.7 5.2 0.00 0.00 0.00 81 1015.2
20260906042550 78 105 0.9 5.2 0.00 0.00 0.00 82 1015.5
20260906042049 78 101 0.0 3.5 0.00 0.00 0.00 82 1015.4
20260906041549 78 90 0.0 3.5 0.00 0.00 0.00 82 1015.4
20260906040049 79 104 1.7 6.1 0.00 0.00 0.00 80 1015.4
20260906035549 79 100 0.9 6.1 0.00 0.00 0.00 80 1015.5
20260906035048 79 48 0.9 2.6 0.00 0.00 0.00 79 1015.5
20260906034549 80 41 0.9 2.6 0.00 0.00 0.00 79 1015.4
20260906034048 80 53 0.9 1.7 0.00 0.00 0.00 78 1015.6
20260906033548 80 80 0.9 2.6 0.00 0.00 0.00 78 1015.4
20260906033048 80 112 0.9 2.6 0.00 0.00 0.00 77 1015.3
20260906032548 80 102 1.7 5.2 0.00 0.00 0.00 77 1015.2
20260906032049 80 102 3.5 6.1 0.00 0.00 0.00 78 1015.1
20260906031548 80 103 3.5 6.1 0.00 0.00 0.00 78 1015.0
20260906031048 80 104 4.3 7.8 0.00 0.00 0.00 78 1014.9
20260906030548 80 104 4.3 7.8 0.00 0.00 0.00 78 1014.9
20260906030048 80 104 4.3 7.0 0.00 0.00 0.00 78 1014.8
20260906025548 80 104 4.3 7.0 0.00 0.00 0.00 77 1014.7
20260906024548 80 100 1.7 6.1 0.00 0.00 0.00 77 1014.6
20260906024047 80 100 2.6 7.0 0.00 0.00 0.00 77 1014.5
20260906023548 80 102 3.5 7.0 0.00 0.00 0.00 77 1014.3
20260906023048 80 104 3.5 6.1 0.00 0.00 0.00 77 1014.3
20260906022547 80 103 3.5 6.1 0.00 0.00 0.00 76 1014.2
20260906021548 80 102 1.7 4.3 0.00 0.00 0.00 75 1014.2
20260906021047 81 101 0.9 3.5 0.00 0.00 0.00 74 1014.2
20260906020547 81 104 0.0 3.5 0.00 0.00 0.00 73 1014.3
20260906020048 81 104 0.0 0.9 0.00 0.00 0.00 73 1014.4
20260906015547 81 104 0.0 0.9 0.00 0.00 0.00 72 1014.4
20260906015047 82 105 0.0 0.9 0.00 0.00 0.00 72 1014.6
20260906014547 82 105 0.0 0.9 0.00 0.00 0.00 71 1014.5
20260906013547 82 106 0.0 0.9 0.00 0.00 0.00 71 1014.5
20260906013047 82 0 0.0 0.0 0.00 0.00 0.00 70 1014.3
20260906012546 82 108 0.0 2.6 0.00 0.00 0.00 70 1014.5
20260906012047 82 109 0.9 4.3 0.00 0.00 0.00 69 1014.4
20260906011546 83 111 0.9 4.3 0.00 0.00 0.00 69 1014.4
20260906011046 83 110 0.9 2.6 0.00 0.00 0.00 68 1014.5
20260906010546 83 108 0.9 2.6 0.00 0.00 0.00 67 1014.4
20260906010046 83 105 0.9 3.5 0.00 0.00 0.00 67 1014.4
20260906005547 83 103 0.9 3.5 0.00 0.00 0.00 66 1014.5
20260906005046 83 104 0.9 2.6 0.00 0.00 0.00 66 1014.5
20260906004546 84 101 0.9 3.5 0.00 0.00 0.00 65 1014.6
20260906004046 84 98 0.9 3.5 0.00 0.00 0.00 64 1014.7
20260906003546 84 92 0.9 4.3 0.00 0.00 0.00 63 1014.6
20260906003046 84 92 0.9 4.3 0.00 0.00 0.00 62 1014.6
20260906002545 85 103 0.9 5.2 0.00 0.00 0.00 61 1014.5
20260906002046 85 99 0.9 5.2 0.00 0.00 0.00 61 1014.3
20260906001545 85 90 0.9 4.3 0.00 0.00 0.00 60 1014.2
20260906001045 86 89 1.7 5.2 0.00 0.00 0.00 60 1014.1
20260906000546 86 90 0.9 6.1 0.00 0.00 0.00 59 1014.0
20260906000045 86 93 0.9 6.1 0.00 0.00 0.00 58 1014.2
20260905235546 87 93 0.9 5.2 0.00 0.00 0.00 57 1014.3
20260905235046 87 96 0.9 7.0 0.00 0.00 0.00 57 1014.2
20260905234545 88 94 0.9 7.0 0.00 0.00 0.00 56 1014.1
20260905234045 88 91 0.9 4.3 0.00 0.00 0.00 56 1014.2
20260905233046 88 96 1.7 7.0 0.00 0.00 0.00 54 1014.1
20260905232545 89 94 2.6 7.0 0.00 0.00 0.00 54 1014.0
20260905232045 89 91 2.6 8.7 0.00 0.00 0.00 53 1013.9
20260905231544 89 91 3.5 8.7 0.00 0.00 0.00 53 1013.8
20260905231045 90 89 2.6 7.0 0.00 0.00 0.00 52 1013.8
20260905230544 90 90 2.6 7.0 0.00 0.00 0.00 52 1013.7
20260905230044 90 95 1.7 12.2 0.00 0.00 0.00 53 1013.7
20260905225545 89 96 3.5 12.2 0.00 0.00 0.00 52 1013.6
20260905225045 90 97 4.3 12.2 0.00 0.00 0.00 52 1013.5
20260905224544 90 99 5.2 13.0 0.00 0.00 0.00 50 1013.5
20260905224044 90 100 7.0 13.0 0.00 0.00 0.00 50 1013.5
20260905223544 90 97 5.2 13.0 0.00 0.00 0.00 51 1013.4
20260905223044 90 95 5.2 13.0 0.00 0.00 0.00 51 1013.3
20260905222544 90 96 5.2 13.0 0.00 0.00 0.00 52 1013.2
20260905222044 90 94 4.3 10.4 0.00 0.00 0.00 52 1013.3
20260905221543 90 94 3.5 9.6 0.00 0.00 0.00 53 1013.3
20260905220544 90 90 3.5 13.0 0.00 0.00 0.00 54 1013.3
20260905215543 91 93 3.5 15.6 0.00 0.00 0.00 53 1013.4
20260905215043 91 90 2.6 9.6 0.00 0.00 0.00 54 1013.5
20260905214543 91 91 3.5 9.6 0.00 0.00 0.00 53 1013.5
20260905214043 91 90 3.5 9.6 0.00 0.00 0.00 52 1013.6
20260905213543 90 86 3.5 9.6 0.00 0.00 0.00 52 1013.8
20260905213043 90 81 2.6 9.6 0.00 0.00 0.00 52 1013.9
20260905211543 89 69 1.7 6.1 0.00 0.00 0.00 52 1014.3
20260905211043 89 68 2.6 6.1 0.00 0.00 0.00 52 1014.3
20260905210543 90 74 2.6 10.4 0.00 0.00 0.00 51 1014.4
20260905210043 90 83 2.6 12.2 0.00 0.00 0.00 50 1014.5
20260905205543 91 88 3.5 12.2 0.00 0.00 0.00 50 1014.5
20260905205042 91 90 3.5 11.3 0.00 0.00 0.00 50 1014.5
20260905204543 91 92 3.5 11.3 0.00 0.00 0.00 50 1014.6
20260905204042 90 92 3.5 11.3 0.00 0.00 0.00 51 1014.6
20260905203542 90 90 3.5 11.3 0.00 0.00 0.00 52 1014.6